Temp
67 61 58 56 50 43 41 43 45 45 47 53 56 55 58 56 58 52 59 65 67 72 73 76 77 78 77 77 77 77 77 78 78 78 78 78 78 78 78 78 79 79 80 80 79 79 78 78 77
60 62 55 45 37 32 43 45 46 50 55 53 53 54 54 58 56 56 60 65 70 72 74 75 76 77 77 77 77 77 77 78 78 77 78 78 78 78 78 78 78 78 78 78 78 77 77 77 76
64 60 49 42 33 39 44 42 52 49 52 53 54 55 58 59 57 58 62 66 73 71 74 74 76 77 77 77 77 77 77 77 77 77 77 77 78 78 78 77 76 76 76 77 77 76 76 76 75
61 52 47 35 32 37 45 43 49 49 50 51 54 53 56 59 60 61 64 68 71 71 73 74 76 76 76 76 77 77 77 77 77 76 76 77 77 77 76 75 75 75 76 75 75 75 75 75 75
53 46 36 34 33 38 41 44 47 49 49 52 56 54 54 58 59 64 67 70 70 72 71 74 75 76 76 76 76 76 76 76 76 76 76 76 76 76 75 74 74 75 75 75 75 75 75 74 74
48 44 34 36 34 38 44 49 48 48 46 47 52 53 54 55 62 66 70 69 74 71 72 73 74 75 75 76 75 76 76 76 76 76 75 75 75 75 75 74 74 75 74 74 74 73 74 73 72
47 41 39 31 41 38 45 48 48 49 46 52 50 52 51 53 62 68 70 70 72 70 72 72 73 73 73 74 74 74 75 75 75 75 74 74 74 74 74 74 74 75 74 74 72 72 72 72 71
54 42 35 38 38 39 48 48 51 51 51 50 55 51 51 55 66 68 69 70 71 70 72 72 71 72 72 72 72 72 72 73 73 72 71 70 70 71 72 72 72 73 73 73 72 72 71 69 69
56 42 38 41 41 41 50 47 51 53 51 50 54 51 54 60 66 65 66 67 67 69 71 72 71 71 71 70 69 70 70 70 69 68 67 67 67 67 67 68 69 70 70 69 68 67 66 65 64
48 43 44 46 45 46 50 49 50 50 49 51 50 52 55 63 64 63 63 65 66 67 69 71 71 71 71 70 70 70 69 69 70 69 68 68 67 65 64 64 66 67 66 66 65 64 62 60 59
50 44 52 51 52 51 51 49 51 50 46 49 53 53 56 63 63 64 65 67 68 68 69 70 70 71 70 68 68 68 68 68 67 66 65 64 63 61 60 59 58 57 56 54 55 55 56 55 57
44 51 52 54 52 50 48 51 46 50 53 56 59 56 58 62 63 63 64 66 67 67 68 69 69 69 69 68 67 66 65 65 64 64 64 63 61 59 57 55 53 52 53 53 53 54 56 56 56
45 48 53 55 52 49 51 49 50 48 54 53 54 55 57 62 65 66 67 67 66 66 66 67 68 67 67 66 65 65 63 63 62 63 62 62 60 56 54 52 52 51 53 53 53 53 53 54 55
49 48 50 52 52 53 47 46 47 49 53 53 52 53 57 61 65 66 66 66 65 65 66 67 66 66 66 64 64 63 63 61 62 61 60 61 58 54 53 52 51 50 51 51 52 52 52 51 53
47 41 46 47 50 48 51 45 45 49 50 51 50 54 56 60 65 65 66 66 66 65 65 65 65 64 63 63 62 62 62 62 61 59 59 58 56 54 52 51 50 49 50 51 51 51 51 51 51
39 39 32 42 47 50 48 38 49 51 49 49 48 50 54 58 64 67 67 68 68 64 64 65 63 62 62 61 61 60 60 61 59 57 58 56 54 53 52 51 49 49 50 51 51 50 48 48 48
35 29 32 36 45 45 45 40 48 53 51 48 46 49 52 56 62 64 67 67 66 65 63 62 62 61 60 58 56 56 56 57 57 54 55 52 52 52 51 50 48 49 49 49 50 47 49 46 47
24 30 34 35 42 43 40 41 45 49 51 52 46 47 52 55 60 60 64 65 64 65 62 61 61 60 58 55 53 52 51 50 53 54 53 52 51 50 50 48 48 49 49 47 47 46 45 46 46
33 31 31 38 42 41 39 40 46 46 48 49 49 45 51 56 61 60 63 64 62 61 60 59 57 56 55 54 53 51 49 49 50 52 53 53 52 50 50 48 47 48 48 46 47 45 44 41 44
31 28 28 34 43 41 39 40 45 48 45 47 45 44 50 56 60 57 59 61 60 59 58 56 55 54 56 57 57 53 50 47 48 50 51 52 51 52 51 49 47 45 45 45 45 44 39 39 43
28 28 28 30 36 42 38 35 40 47 50 47 47 48 49 53 56 55 55 58 58 57 56 55 53 54 55 55 49 49 48 48 46 48 48 49 50 50 50 47 47 45 46 45 43 41 42 37 37
17 33 33 31 29 28 37 25 34 42 44 45 44 44 47 51 56 56 55 54 55 55 56 54 54 53 53 52 53 50 52 48 47 47 45 46 48 48 46 47 46 45 43 43 42 42 40 40 37
25 33 31 30 26 26 31 28 29 41 38 42 40 42 45 49 54 54 54 53 53 52 51 52 52 50 50 51 52 53 52 49 47 47 46 44 45 44 45 44 43 43 43 42 43 41 42 42 38
32 31 31 30 27 19 26 29 27 33 38 40 34 38 42 47 52 53 53 52 49 50 49 48 47 46 49 50 51 51 49 46 45 45 45 44 41 43 41 43 42 41 41 41 40 40 41 40 39
25 17 10 19 18 17 30 28 23 25 29 34 38 37 41 49 51 49 47 47 47 47 47 48 47 45 47 48 49 47 48 48 46 45 44 41 41 40 42 42 41 39 39 40 39 39 39 38 39
22 21 18 6 15 18 27 23 19 27 31 33 35 39 44 48 48 48 46 46 45 45 46 47 46 44 46 47 46 46 45 44 44 43 42 43 43 41 41 41 41 41 41 39 39 37 36 37 35
20 21 22 11 15 18 16 14 21 28 29 32 34 41 39 39 43 43 43 43 43 44 43 45 44 44 44 43 44 43 43 43 42 41 41 39 39 40 39 41 40 41 41 41 40 38 36 36 34
22 24 17 16 14 6 11 9 7 20 22 29 29 31 33 36 37 37 38 38 39 40 40 41 42 41 39 40 41 40 39 40 39 40 38 38 39 38 38 37 38 38 40 41 41 39 38 37 34
18 15 14 18 19 9 3 4 22 22 24 27 28 29 31 32 33 34 34 35 35 37 37 37 36 36 36 36 37 37 37 38 38 37 37 37 38 38 38 37 37 37 38 39 39 38 39 37 36
23 16 17 12 16 15 8 9 24 25 26 27 27 28 29 30 32 32 33 33 33 34 34 34 35 34 34 34 34 34 34 35 35 35 35 37 37 38 37 37 37 37 37 38 38 38 37 36 35
MSLP
1012.67 1012.83 1013.27 1013.84 1015.10 1015.56 1014.57 1014.11 1013.58 1013.69 1013.47 1012.39 1012.10 1012.27 1011.87 1011.44 1011.80 1012.37 1011.41 1011.29 1011.15 1011.81 1012.17 1012.65 1013.03 1013.55 1014.11 1014.49 1014.84 1015.21 1015.36 1015.70 1015.96 1016.23 1016.44 1016.70 1016.87 1017.05 1017.24 1017.48 1017.65 1017.78 1017.88 1018.21 1018.41 1018.73 1018.98 1019.40 1019.60
1012.84 1012.99 1013.88 1015.12 1015.78 1015.89 1014.05 1013.52 1013.05 1012.45 1011.90 1011.72 1011.78 1011.70 1011.75 1011.26 1011.08 1011.55 1011.61 1011.29 1011.19 1011.66 1012.03 1012.59 1013.05 1013.59 1014.19 1014.52 1014.87 1015.26 1015.54 1015.86 1016.14 1016.51 1016.72 1016.96 1017.09 1017.36 1017.56 1017.75 1018.10 1018.28 1018.45 1018.77 1019.04 1019.32 1019.58 1019.83 1020.10
1012.70 1013.11 1014.55 1015.33 1015.58 1014.65 1013.33 1012.97 1012.47 1012.19 1011.79 1011.43 1011.44 1011.10 1011.16 1010.91 1010.92 1011.08 1010.78 1010.99 1011.14 1011.81 1012.16 1012.59 1013.02 1013.65 1014.27 1014.70 1015.09 1015.31 1015.69 1016.05 1016.27 1016.74 1017.02 1017.20 1017.41 1017.60 1018.03 1018.39 1018.66 1018.92 1019.11 1019.39 1019.55 1019.87 1020.13 1020.43 1020.61
1012.79 1014.02 1015.15 1015.17 1014.75 1014.06 1012.80 1012.50 1012.22 1012.28 1011.80 1011.62 1011.17 1011.15 1010.85 1010.37 1010.54 1010.61 1010.76 1011.04 1011.27 1011.89 1012.38 1012.72 1012.97 1013.59 1014.25 1014.72 1015.20 1015.55 1015.92 1016.21 1016.61 1017.06 1017.38 1017.61 1017.86 1018.16 1018.47 1018.91 1019.20 1019.43 1019.64 1019.95 1020.22 1020.44 1020.68 1021.03 1021.22
1013.09 1014.12 1015.00 1014.94 1014.37 1013.62 1012.75 1012.31 1012.11 1012.08 1011.75 1011.21 1011.05 1010.89 1010.74 1010.31 1010.39 1010.57 1010.81 1011.17 1011.32 1011.89 1012.42 1012.86 1013.22 1013.75 1014.32 1014.83 1015.19 1015.68 1016.21 1016.49 1016.96 1017.40 1017.64 1017.97 1018.39 1018.74 1019.02 1019.32 1019.56 1019.86 1020.15 1020.42 1020.76 1020.99 1021.27 1021.61 1021.88
1012.97 1013.76 1014.30 1013.71 1013.52 1013.03 1012.37 1012.02 1011.95 1011.72 1011.34 1011.23 1011.30 1010.94 1010.61 1010.56 1010.57 1010.69 1011.00 1011.21 1011.54 1012.08 1012.48 1012.92 1013.38 1013.94 1014.49 1015.01 1015.39 1015.87 1016.31 1016.80 1017.23 1017.62 1017.98 1018.45 1018.86 1019.19 1019.51 1019.75 1019.91 1020.19 1020.54 1020.92 1021.49 1021.86 1021.75 1022.09 1022.52
1011.53 1012.65 1011.90 1012.35 1012.33 1012.55 1011.81 1011.54 1011.60 1011.17 1011.15 1010.79 1010.45 1010.81 1010.81 1010.67 1010.52 1010.81 1011.28 1011.61 1011.83 1012.21 1012.63 1013.18 1013.56 1014.15 1014.72 1015.28 1015.72 1016.10 1016.53 1017.06 1017.55 1017.97 1018.39 1018.85 1019.32 1019.60 1019.87 1020.17 1020.43 1020.72 1021.17 1021.48 1021.85 1022.29 1022.46 1022.55 1022.99
1010.51 1011.78 1011.16 1010.75 1011.25 1011.23 1010.88 1011.00 1010.51 1010.74 1010.18 1010.10 1010.05 1010.44 1010.46 1010.15 1010.41 1010.99 1011.53 1011.79 1012.05 1012.64 1012.90 1013.27 1013.79 1014.39 1014.98 1015.51 1016.00 1016.40 1016.90 1017.38 1017.90 1018.33 1018.91 1019.39 1019.79 1020.15 1020.55 1020.71 1020.97 1021.44 1021.82 1022.15 1022.44 1022.89 1023.07 1023.44 1024.00
1010.19 1010.15 1008.54 1009.04 1009.97 1010.49 1010.10 1010.42 1010.13 1009.76 1010.04 1010.06 1009.92 1009.85 1009.72 1009.94 1010.19 1011.03 1011.63 1012.15 1012.50 1012.86 1013.05 1013.38 1013.87 1014.51 1015.14 1015.75 1016.29 1016.75 1017.27 1017.74 1018.33 1018.85 1019.47 1019.88 1020.42 1020.74 1021.28 1021.54 1021.70 1022.14 1022.54 1023.06 1023.33 1023.92 1024.13 1024.39 1024.96
1008.76 1007.39 1006.63 1008.14 1008.96 1009.38 1009.69 1009.73 1009.70 1009.82 1009.89 1009.88 1009.95 1009.85 1009.86 1009.98 1010.06 1010.37 1010.97 1011.39 1011.95 1012.45 1013.00 1013.64 1014.09 1014.49 1015.15 1015.99 1016.46 1017.02 1017.72 1018.23 1018.69 1019.30 1019.83 1020.31 1020.90 1021.33 1021.92 1022.27 1022.62 1023.13 1023.53 1023.99 1024.30 1024.67 1024.83 1025.19 1025.55
1007.10 1005.04 1007.13 1007.44 1008.27 1008.81 1009.19 1009.37 1009.41 1009.45 1009.51 1009.22 1009.34 1009.81 1010.08 1009.94 1010.17 1010.39 1010.63 1010.61 1010.84 1011.91 1012.76 1013.59 1014.28 1014.78 1015.27 1015.95 1016.75 1017.34 1017.88 1018.42 1019.10 1019.75 1020.20 1020.76 1021.41 1021.98 1022.55 1023.30 1023.78 1024.32 1024.76 1025.17 1025.36 1025.57 1025.97 1026.32 1026.39
1007.51 1006.10 1006.87 1007.34 1007.73 1008.24 1008.61 1008.82 1008.77 1008.59 1008.17 1007.98 1008.25 1008.73 1009.60 1009.72 1009.80 1010.07 1010.61 1011.12 1011.60 1012.05 1012.70 1013.41 1014.01 1014.83 1015.41 1016.08 1016.84 1017.48 1018.15 1018.75 1019.38 1020.04 1020.52 1021.03 1021.83 1022.50 1023.22 1024.15 1024.77 1024.97 1025.27 1025.57 1025.99 1026.38 1026.68 1026.85 1026.97
1006.75 1006.45 1006.66 1007.19 1007.50 1007.92 1008.22 1008.30 1008.25 1007.95 1007.85 1008.01 1008.31 1008.69 1009.02 1009.37 1009.37 1009.79 1010.11 1010.71 1011.43 1012.11 1012.57 1013.57 1014.07 1014.83 1015.60 1016.19 1017.00 1017.72 1018.51 1019.08 1019.71 1020.25 1020.85 1021.28 1022.10 1023.12 1023.86 1024.75 1025.10 1025.32 1025.67 1025.96 1026.67 1027.09 1027.46 1027.73 1027.97
1006.69 1007.05 1006.75 1006.91 1007.19 1007.67 1008.20 1008.41 1008.41 1007.36 1007.47 1008.19 1008.52 1008.61 1008.63 1008.60 1008.82 1009.47 1010.13 1010.75 1011.29 1012.01 1012.52 1013.59 1014.26 1014.77 1015.39 1016.58 1017.12 1018.00 1018.69 1019.42 1020.01 1020.56 1021.10 1021.64 1022.42 1023.40 1024.07 1024.81 1025.29 1025.71 1026.14 1026.62 1027.13 1027.63 1028.03 1028.41 1028.68
1007.62 1007.49 1006.89 1006.60 1007.03 1007.32 1008.16 1007.94 1005.48 1007.48 1007.57 1008.06 1008.46 1008.43 1008.40 1008.38 1008.53 1008.75 1009.19 1009.92 1010.69 1011.54 1012.36 1013.09 1014.33 1014.87 1015.70 1016.69 1017.48 1018.24 1018.99 1019.52 1020.12 1020.89 1021.40 1021.97 1022.80 1023.51 1024.18 1024.80 1025.51 1026.07 1026.57 1026.94 1027.50 1027.99 1028.44 1028.81 1029.33
1007.40 1007.64 1006.81 1006.42 1006.93 1006.98 1008.01 1003.89 1006.03 1007.00 1007.65 1007.89 1008.34 1008.55 1008.45 1008.31 1008.30 1008.51 1008.78 1009.25 1010.30 1011.41 1012.15 1013.09 1014.21 1015.07 1016.05 1016.76 1017.67 1018.47 1019.19 1019.85 1020.51 1021.12 1021.72 1022.32 1023.11 1023.63 1024.24 1024.96 1025.77 1026.39 1026.84 1027.19 1027.69 1028.31 1028.99 1029.68 1030.23
1007.04 1005.49 1005.83 1006.10 1006.14 1007.19 1006.29 1003.63 1005.14 1005.84 1006.96 1007.66 1008.11 1008.27 1008.39 1008.38 1008.29 1008.62 1008.87 1009.40 1010.21 1010.98 1011.97 1013.10 1014.00 1015.09 1016.04 1016.93 1018.06 1018.80 1019.56 1020.11 1020.81 1021.56 1022.12 1022.79 1023.43 1023.90 1024.41 1025.22 1026.01 1026.50 1027.07 1027.62 1028.00 1028.91 1028.95 1030.09 1030.82
1007.28 1005.76 1005.21 1005.17 1005.59 1006.12 1005.46 1005.04 1005.39 1005.29 1006.13 1006.90 1007.69 1007.94 1008.11 1008.04 1008.07 1008.70 1008.84 1009.40 1010.28 1010.88 1011.94 1013.04 1013.95 1015.01 1016.09 1017.20 1018.35 1019.47 1020.13 1020.91 1021.17 1021.79 1022.49 1023.05 1023.74 1024.23 1024.73 1025.60 1026.22 1026.66 1027.26 1028.03 1028.65 1029.19 1030.16 1030.53 1031.07
1007.59 1006.78 1005.68 1004.82 1004.68 1005.07 1004.07 1005.68 1005.46 1005.70 1005.88 1006.32 1007.00 1007.48 1007.67 1007.67 1007.83 1008.61 1008.96 1009.27 1010.21 1011.03 1011.92 1012.94 1013.92 1015.14 1015.95 1016.88 1018.36 1019.65 1020.43 1021.23 1021.66 1022.11 1022.64 1023.18 1023.90 1024.44 1024.95 1025.72 1026.44 1026.91 1027.39 1028.14 1028.81 1029.56 1030.42 1031.44 1031.44
1007.76 1006.90 1006.46 1005.95 1004.40 1004.52 1004.57 1004.69 1005.49 1005.55 1005.54 1005.99 1006.64 1007.11 1007.08 1007.51 1007.80 1008.67 1009.10 1009.27 1009.96 1010.69 1011.77 1012.98 1014.07 1015.01 1015.93 1016.57 1017.28 1018.68 1020.13 1021.36 1021.74 1022.29 1022.87 1023.32 1023.92 1024.47 1024.92 1025.58 1026.42 1027.12 1027.76 1028.52 1028.91 1029.29 1030.53 1031.32 1031.63
1007.54 1006.90 1006.55 1006.69 1005.05 1004.49 1004.91 1005.24 1005.08 1005.16 1005.47 1005.84 1006.05 1006.35 1006.79 1006.70 1007.50 1008.42 1009.14 1009.47 1010.02 1010.91 1011.81 1012.75 1013.88 1014.88 1016.00 1016.68 1017.62 1018.64 1020.52 1021.52 1022.37 1022.69 1023.17 1023.62 1023.94 1024.51 1024.95 1025.64 1026.30 1027.10 1027.62 1028.39 1028.99 1029.49 1029.83 1031.23 1032.13
1007.64 1006.56 1006.67 1006.59 1005.95 1004.86 1004.89 1004.43 1004.84 1004.67 1005.40 1006.01 1006.13 1006.49 1006.49 1006.66 1007.18 1008.12 1009.01 1009.69 1010.24 1011.09 1012.04 1012.96 1013.82 1014.83 1015.88 1016.58 1017.07 1017.55 1018.93 1020.51 1021.52 1022.29 1023.02 1023.65 1024.02 1024.60 1025.14 1025.67 1026.26 1026.92 1027.73 1028.41 1028.99 1029.57 1030.01 1030.47 1031.74
1008.07 1007.62 1006.63 1005.84 1006.31 1006.18 1005.20 1005.43 1003.61 1004.58 1005.94 1006.04 1006.46 1006.27 1006.51 1006.65 1006.95 1007.90 1008.93 1009.91 1010.74 1011.52 1012.34 1013.31 1014.27 1015.22 1016.18 1016.79 1017.42 1018.02 1018.89 1019.83 1020.65 1022.16 1023.17 1023.76 1024.39 1024.81 1025.22 1025.94 1026.53 1027.02 1027.66 1028.36 1028.62 1029.43 1030.02 1030.54 1031.58
1007.77 1006.83 1006.90 1006.83 1007.53 1007.40 1006.59 1006.50 1005.39 1005.63 1005.10 1006.71 1006.97 1006.73 1006.58 1006.89 1007.15 1007.90 1008.98 1010.05 1010.99 1011.97 1012.84 1013.68 1014.69 1015.80 1016.47 1017.15 1017.77 1018.18 1019.07 1019.92 1020.86 1022.22 1022.78 1023.86 1024.41 1025.05 1025.57 1026.15 1026.82 1027.40 1027.89 1028.53 1029.03 1029.32 1029.79 1030.38 1031.07
1009.53 1008.78 1008.21 1007.92 1008.06 1007.57 1007.16 1008.07 1008.51 1008.50 1008.25 1007.88 1007.23 1007.20 1007.11 1006.98 1007.30 1008.18 1009.13 1010.22 1011.26 1012.21 1013.05 1013.86 1014.77 1015.89 1016.66 1017.25 1018.07 1018.43 1019.38 1020.28 1020.79 1021.95 1022.31 1023.45 1024.35 1025.15 1025.62 1026.08 1027.00 1028.01 1028.31 1028.61 1029.31 1029.77 1030.02 1030.48 1031.04
1011.01 1010.23 1009.75 1009.34 1008.91 1009.02 1008.66 1009.42 1010.61 1010.15 1009.60 1008.74 1008.11 1007.67 1007.76 1007.74 1007.83 1008.57 1009.48 1010.45 1011.38 1012.42 1013.27 1014.01 1014.90 1015.96 1016.69 1017.36 1018.13 1018.94 1019.74 1020.29 1021.52 1022.00 1023.09 1024.06 1024.13 1024.29 1025.30 1026.10 1027.19 1027.88 1028.62 1029.08 1029.27 1030.17 1030.51 1030.85 1031.41
1012.05 1011.37 1011.18 1010.20 1009.55 1009.86 1011.23 1011.93 1011.49 1011.45 1010.90 1010.21 1009.01 1008.70 1008.73 1008.96 1009.02 1009.36 1010.27 1011.23 1012.09 1012.92 1013.72 1014.19 1015.06 1016.15 1016.89 1017.61 1018.26 1019.24 1020.07 1020.66 1021.32 1022.42 1022.85 1023.49 1024.52 1024.69 1025.47 1026.60 1026.93 1028.25 1029.00 1029.42 1029.67 1030.12 1030.55 1030.98 1031.75
1013.46 1013.25 1012.39 1011.39 1011.37 1011.78 1012.67 1013.25 1013.32 1013.23 1012.87 1011.91 1010.82 1010.49 1010.41 1010.25 1010.53 1010.85 1011.31 1012.14 1012.88 1013.52 1014.18 1014.87 1015.62 1016.47 1017.30 1017.99 1018.85 1019.51 1020.43 1021.22 1020.75 1023.35 1022.89 1025.14 1025.26 1025.18 1026.04 1026.86 1027.43 1028.55 1029.47 1029.91 1030.25 1030.62 1030.63 1030.89 1031.94
1014.68 1014.68 1014.08 1013.18 1012.73 1012.85 1014.28 1015.40 1015.54 1014.72 1014.14 1013.39 1012.63 1012.21 1012.33 1011.87 1011.61 1012.28 1012.68 1013.06 1013.67 1014.26 1014.89 1015.60 1016.29 1017.19 1017.93 1018.49 1019.25 1019.84 1020.89 1021.50 1022.35 1023.38 1023.71 1024.60 1025.27 1025.63 1026.18 1026.91 1027.94 1028.94 1029.64 1029.99 1030.84 1031.45 1031.00 1031.14 1031.98
1016.93 1016.12 1015.31 1014.78 1013.71 1013.92 1014.76 1016.78 1016.29 1015.56 1014.98 1014.56 1013.98 1013.56 1013.58 1013.20 1012.87 1013.33 1013.47 1013.87 1014.40 1015.19 1015.80 1016.37 1017.12 1017.75 1018.51 1018.96 1019.53 1020.44 1021.40 1021.69 1022.90 1023.30 1023.82 1024.12 1025.41 1025.92 1026.43 1027.24 1028.29 1029.48 1029.82 1030.05 1031.19 1031.84 1031.68 1031.84 1032.33
Wind_Speed
4 6 4 5 2 3 8 8 4 5 3 6 9 6 10 4 7 7 4 8 9 15 12 15 19 18 18 18 15 16 16 15 16 16 17 17 17 17 18 18 18 18 21 20 22 22 22 21 21
4 4 5 3 6 4 11 7 13 9 8 6 4 4 3 7 1 2 7 7 13 13 13 13 20 18 18 19 15 17 16 15 16 16 16 17 18 18 19 19 20 20 21 20 20 19 20 19 18
4 5 4 5 5 14 15 8 11 3 4 2 5 3 5 5 2 6 5 10 19 13 13 14 21 20 19 18 16 17 16 15 16 16 16 17 18 18 20 20 20 20 19 18 19 19 18 19 18
3 4 3 4 9 8 9 5 5 4 3 3 2 4 2 2 6 6 8 12 16 12 11 16 21 21 20 19 17 16 16 16 16 17 16 17 20 21 22 22 20 20 21 22 24 23 22 20 19
4 3 3 5 7 6 4 1 8 7 4 6 7 6 4 2 1 8 12 14 16 14 11 14 21 21 20 19 19 19 17 17 17 18 19 21 22 22 22 21 20 21 22 23 24 24 23 21 21
4 3 5 18 9 5 5 9 7 6 4 2 5 6 5 2 8 12 14 15 15 12 12 13 20 21 20 19 19 19 19 18 19 19 21 22 22 21 20 18 16 19 21 25 25 23 23 22 21
8 6 16 4 16 6 8 9 9 7 4 8 3 8 3 3 7 11 13 11 12 10 13 12 14 16 18 18 19 19 19 19 19 19 19 19 18 19 19 18 20 21 21 22 23 21 21 21 21
7 5 8 11 11 9 7 7 6 10 12 0 5 6 6 6 13 11 11 11 12 10 11 13 12 12 12 12 16 17 18 18 19 20 18 15 16 17 18 18 21 22 22 23 23 21 22 23 20
6 11 21 23 19 5 7 8 5 3 5 4 5 3 4 13 16 14 12 10 10 8 11 13 14 12 12 11 11 14 14 17 19 17 17 14 9 12 13 16 22 22 23 23 23 22 22 23 21
17 17 28 5 6 8 6 6 9 6 7 6 3 2 4 18 17 20 18 17 17 13 15 13 14 14 14 10 13 12 12 9 11 11 12 9 10 11 12 17 21 23 23 22 21 19 19 14 7
13 30 18 6 12 10 11 8 7 9 10 8 11 7 12 20 16 17 17 20 22 15 13 15 14 13 13 11 9 6 6 7 8 10 9 11 9 8 8 6 7 7 12 6 9 10 8 10 8
23 25 16 14 3 8 9 8 6 11 11 12 13 13 17 22 18 18 17 17 14 15 15 15 15 13 12 9 8 7 7 7 7 8 11 9 7 8 8 6 5 6 5 9 8 7 10 12 13
28 21 13 23 13 5 4 10 12 9 11 4 6 12 21 22 23 17 17 16 13 14 14 15 15 13 11 11 8 8 8 7 8 8 8 8 8 8 8 6 5 6 6 8 8 8 8 10 11
10 19 22 16 19 13 8 5 5 7 5 7 9 14 19 24 25 20 16 17 14 12 16 15 14 14 12 10 12 8 8 8 7 7 7 9 9 8 8 7 7 7 7 6 7 8 8 8 9
20 28 10 21 16 12 2 19 31 2 6 8 9 14 16 19 24 23 21 21 19 14 16 18 15 13 14 13 11 8 8 8 7 7 9 10 9 9 9 7 7 7 7 11 9 9 9 9 9
24 18 24 18 19 12 18 36 16 11 8 10 9 8 13 16 21 25 20 22 20 14 18 18 13 15 15 13 10 8 8 7 6 6 7 10 9 9 8 8 7 6 6 7 8 8 9 8 8
10 19 27 22 15 15 22 23 14 21 16 11 8 9 11 14 20 16 18 17 18 18 17 16 18 17 16 12 9 8 8 6 6 6 6 8 9 8 8 7 7 7 6 6 7 5 7 8 8
7 14 20 24 18 24 26 20 3 16 19 20 10 9 12 16 18 12 16 16 14 18 16 16 14 16 15 11 9 6 6 5 6 7 6 9 7 9 9 7 8 7 8 7 6 10 5 6 9
14 15 12 16 15 17 32 22 15 6 13 19 16 13 14 16 17 12 14 16 17 17 17 16 16 12 12 12 10 6 7 5 5 5 9 9 8 9 10 8 7 5 8 9 9 10 11 4 5
12 18 16 10 16 25 17 24 23 19 10 14 13 12 16 16 17 14 14 16 17 18 18 15 15 16 11 10 10 6 6 3 5 5 7 7 8 9 9 11 8 6 8 9 8 7 5 3 2
7 14 8 9 6 18 10 16 17 25 12 11 12 15 15 21 18 15 13 15 14 17 18 18 16 15 11 10 9 10 8 6 4 4 5 5 8 8 9 8 9 8 7 8 6 5 6 4 3
4 10 12 4 3 3 12 7 18 22 22 14 12 13 16 17 18 15 16 12 14 13 13 14 16 14 11 13 11 20 12 11 5 6 4 6 7 8 7 9 9 9 5 9 6 4 3 5 5
3 6 10 5 3 5 4 6 6 21 20 12 12 13 13 17 20 17 16 12 11 11 12 12 13 12 12 11 11 11 11 5 9 8 10 7 5 6 7 7 7 8 6 6 10 7 6 3 4
1 5 3 5 4 6 8 8 2 16 26 17 4 7 12 14 17 16 14 13 11 11 11 13 14 10 11 11 10 9 11 11 11 9 10 6 5 5 6 6 5 5 6 7 5 6 7 6 5
12 5 2 4 6 4 4 8 2 9 9 7 9 9 8 14 17 15 16 14 13 14 13 13 15 13 12 13 10 11 11 10 12 11 9 11 7 3 6 6 5 3 4 6 6 5 6 6 5
4 1 1 6 5 4 5 4 2 9 8 9 5 7 9 12 14 17 14 13 13 13 13 14 14 13 12 12 10 8 9 7 5 7 5 2 4 7 9 6 6 6 5 5 6 4 4 6 5
7 2 3 3 1 4 1 4 1 12 13 10 6 9 8 6 8 14 13 11 12 11 10 13 13 11 12 11 10 10 8 10 10 7 10 3 3 7 8 7 8 6 4 5 5 5 6 6 5
5 6 2 2 1 2 4 4 4 15 15 11 10 7 5 8 9 9 10 11 9 9 10 10 11 11 11 11 9 9 9 9 12 6 12 7 6 8 10 8 7 9 5 4 3 4 6 9 4
12 5 4 2 2 4 5 5 4 8 9 7 9 10 6 5 9 8 9 10 10 9 10 10 11 11 9 9 9 12 9 9 10 8 10 9 8 9 10 10 10 7 7 6 5 3 7 10 7
13 9 3 2 3 4 2 1 8 6 7 7 9 10 9 9 10 7 9 10 11 10 9 9 9 10 8 9 10 9 8 10 9 9 10 11 9 9 12 12 11 8 7 8 6 4 4 7 8
Wind_Direction
99 88 76 41 128 58 230 227 174 162 215 201 141 159 198 196 167 205 317 174 147 153 159 159 149 147 141 137 136 132 130 134 132 129 126 123 122 121 121 120 116 112 105 107 104 101 98 96 95
138 95 51 79 120 157 234 169 205 184 197 134 147 141 148 237 205 86 124 220 168 146 156 155 147 144 143 139 139 136 134 136 129 130 125 124 125 125 123 118 114 109 100 101 100 102 100 96 93
103 64 107 151 179 212 234 201 204 226 214 124 168 200 171 230 222 187 245 154 157 153 156 154 148 147 145 141 140 133 133 132 126 129 125 123 121 122 116 111 106 99 97 100 97 97 93 92 91
128 27 26 161 215 247 227 173 177 176 273 211 208 242 262 212 168 189 150 154 151 149 152 155 149 146 145 141 141 133 134 127 125 123 124 119 112 111 110 104 98 96 98 94 91 90 88 87 85
69 86 197 225 227 238 227 291 167 180 209 205 165 233 242 201 39 133 151 156 155 146 145 151 147 146 143 145 138 135 133 128 130 130 122 113 107 105 103 104 104 103 97 94 90 88 85 84 81
142 121 204 221 221 205 274 200 155 186 221 103 178 152 231 336 136 150 155 154 161 141 148 154 148 145 143 144 135 136 134 132 132 130 125 119 117 113 109 107 109 109 112 100 91 81 84 83 77
180 185 220 194 221 201 211 148 198 192 154 225 168 166 241 181 156 152 154 157 140 144 152 149 145 142 140 140 137 135 135 132 128 127 121 121 120 114 111 105 97 95 100 105 103 107 98 84 82
199 163 224 204 202 231 203 173 181 170 226 149 162 196 227 186 155 143 151 146 144 160 157 147 139 139 138 138 136 131 128 127 123 116 110 107 105 104 104 98 96 99 97 98 99 97 93 88 74
160 219 227 221 209 198 186 170 187 184 195 191 193 182 280 145 142 141 151 155 157 166 150 153 147 138 133 128 124 115 115 117 111 104 105 98 96 93 86 95 93 94 94 93 91 90 85 81 75
213 225 229 185 196 187 199 177 177 165 187 214 148 341 119 154 158 156 163 168 171 167 153 155 152 147 139 134 128 126 124 123 119 121 113 105 98 91 85 78 88 94 96 92 89 80 72 64 61
211 232 220 209 197 170 212 193 195 187 229 195 178 178 169 166 169 169 173 173 173 159 153 157 151 148 141 137 129 130 127 124 118 115 108 108 100 92 83 78 74 76 76 77 77 67 62 64 67
242 243 239 214 211 173 194 159 217 201 210 190 192 170 170 177 175 174 175 173 168 156 159 153 149 147 142 134 135 129 125 120 116 117 118 116 106 95 91 88 86 90 87 88 79 79 76 69 63
238 233 232 228 210 191 172 212 224 223 232 215 139 163 171 183 186 181 178 171 155 159 150 154 146 145 143 134 129 131 129 127 126 120 118 120 116 109 110 104 101 95 96 92 91 85 80 74 69
239 239 250 240 226 214 192 231 210 208 191 154 157 180 182 182 187 179 173 174 166 154 150 154 148 145 135 135 131 134 133 130 123 122 119 116 118 122 120 114 106 93 95 91 93 94 87 77 75
231 249 247 235 216 213 68 256 230 187 169 180 179 188 186 190 186 183 175 177 169 162 152 151 149 141 131 136 124 132 138 140 132 125 121 120 122 129 123 118 108 105 104 106 101 90 85 79 70
228 232 226 228 220 220 175 249 215 173 176 211 182 187 194 191 189 191 184 180 174 154 156 153 147 142 138 135 130 131 141 146 131 125 126 119 124 130 123 120 115 115 107 110 105 105 94 86 81
235 213 229 221 198 214 192 242 205 181 188 205 182 177 190 191 198 190 189 175 178 162 152 150 150 147 139 126 118 116 112 126 129 117 125 121 123 120 122 121 121 117 108 97 109 87 97 101 89
234 220 222 220 197 201 228 226 50 180 190 202 194 178 184 193 191 185 187 171 168 162 153 148 148 150 141 126 116 103 104 97 123 135 133 127 126 121 119 118 123 125 119 109 102 104 72 105 108
247 261 252 216 187 190 221 225 216 208 202 204 204 179 187 195 188 188 192 170 166 155 145 149 144 149 150 144 139 140 142 140 114 129 135 132 137 134 132 129 127 130 133 130 123 112 112 93 126
236 236 254 288 195 202 208 219 227 210 208 200 185 188 180 188 191 185 192 175 161 154 150 146 151 153 164 164 152 133 139 100 112 128 123 130 136 143 144 146 145 127 128 129 140 136 124 89 355
259 208 202 259 247 220 180 227 216 226 226 205 197 184 186 183 180 173 177 172 159 158 156 155 155 156 161 153 116 108 102 97 84 144 131 137 139 139 145 141 144 137 143 151 142 132 122 130 36
180 191 161 177 39 199 187 221 211 208 214 208 198 187 190 186 180 168 171 167 159 156 152 153 155 151 155 160 160 156 161 157 156 164 130 134 139 140 135 145 147 144 138 148 148 128 116 116 136
213 203 204 151 116 27 249 228 251 190 210 197 216 195 190 182 176 165 170 153 147 142 144 141 141 141 149 153 166 168 159 142 134 153 142 131 119 115 131 137 140 142 146 150 152 137 137 108 132
23 357 113 105 89 252 233 289 184 180 200 194 183 210 180 178 177 159 152 144 132 131 136 135 135 136 144 143 154 154 154 150 143 161 148 156 131 127 105 116 114 129 137 151 148 132 140 134 120
9 52 343 149 189 213 175 234 55 333 341 269 195 184 186 172 166 148 141 139 138 145 146 141 145 144 148 145 148 134 149 162 158 168 161 155 151 158 143 124 129 123 129 133 130 140 131 140 134
286 29 215 172 157 170 151 275 36 329 310 295 259 166 166 161 155 155 145 145 144 146 150 148 147 146 151 149 142 142 145 135 134 127 105 161 156 134 120 110 111 113 129 130 126 125 122 126 124
335 17 340 55 149 111 310 276 94 2 358 353 40 137 121 91 137 134 129 133 139 141 145 148 139 140 136 136 137 139 139 136 133 123 116 65 100 117 101 113 112 82 102 126 134 141 132 119 118
21 327 49 346 357 98 10 0 301 345 332 345 26 48 57 113 111 101 110 115 112 117 113 109 123 131 132 127 126 116 120 127 113 136 114 136 121 106 112 106 96 112 83 95 107 130 127 119 119
7 10 330 302 220 182 134 295 313 304 312 350 22 42 30 70 99 106 105 98 96 94 103 111 109 119 119 119 123 125 127 118 119 132 124 128 126 122 116 112 108 107 111 88 80 104 122 118 115
38 356 301 296 1 24 112 341 342 3 11 5 32 33 28 44 68 87 101 103 98 96 96 99 110 114 116 114 112 111 122 123 132 133 126 128 124 122 122 115 111 110 99 100 106 117 98 116 119